| time (UTC) | temp F | wind direction | speed knots | gust knots | rain 1hr in | rain 24hr in | rain mn in | humidity % | barometer mb |
| 20260901231931 | 92 | 319 | 3.5 | 3.5 | 0.00 | 0.00 | 0.00 | 61 | 1014.1 |
| 20260901231427 | 92 | 228 | 2.6 | 3.5 | 0.00 | 0.00 | 0.00 | 59 | 1014.1 |
| 20260901230924 | 92 | 236 | 3.5 | 6.1 | 0.00 | 0.00 | 0.00 | 59 | 1014.0 |
| 20260901230423 | 92 | 242 | 4.3 | 5.2 | 0.00 | 0.00 | 0.00 | 58 | 1014.1 |
| 20260901225919 | 93 | 253 | 6.1 | 7.8 | 0.00 | 0.00 | 0.00 | 58 | 1014.1 |
| 20260901225418 | 93 | 278 | 3.5 | 5.2 | 0.00 | 0.00 | 0.00 | 58 | 1014.3 |
| 20260901224913 | 93 | 260 | 3.5 | 5.2 | 0.00 | 0.00 | 0.00 | 57 | 1014.1 |
| 20260901224409 | 94 | 261 | 6.1 | 7.0 | 0.00 | 0.00 | 0.00 | 58 | 1014.1 |
| 20260901223906 | 94 | 240 | 3.5 | 5.2 | 0.00 | 0.00 | 0.00 | 59 | 1014.1 |
| 20260901223400 | 94 | 262 | 4.3 | 5.2 | 0.00 | 0.00 | 0.00 | 58 | 1014.0 |
| 20260901222856 | 94 | 289 | 2.6 | 2.6 | 0.00 | 0.00 | 0.00 | 57 | 1014.3 |
| 20260901222353 | 94 | 280 | 3.5 | 5.2 | 0.00 | 0.00 | 0.00 | 57 | 1014.3 |
| 20260901221848 | 94 | 265 | 4.3 | 6.1 | 0.00 | 0.00 | 0.00 | 57 | 1014.1 |
| 20260901221343 | 94 | 290 | 4.3 | 7.0 | 0.00 | 0.00 | 0.00 | 57 | 1014.3 |
| 20260901220843 | 95 | 242 | 3.5 | 5.2 | 0.00 | 0.00 | 0.00 | 56 | 1014.1 |
| 20260901220342 | 95 | 257 | 4.3 | 6.1 | 0.00 | 0.00 | 0.00 | 56 | 1014.2 |
| 20260901215841 | 95 | 318 | 3.5 | 5.2 | 0.00 | 0.00 | 0.00 | 57 | 1014.2 |
| 20260901215341 | 95 | 264 | 5.2 | 6.1 | 0.00 | 0.00 | 0.00 | 56 | 1014.0 |
| 20260901214839 | 95 | 264 | 2.6 | 3.5 | 0.00 | 0.00 | 0.00 | 57 | 1014.1 |
| 20260901214338 | 94 | 294 | 2.6 | 3.5 | 0.00 | 0.00 | 0.00 | 58 | 1014.2 |
| 20260901213833 | 95 | 260 | 5.2 | 6.1 | 0.00 | 0.00 | 0.00 | 58 | 1014.1 |
| 20260901213333 | 94 | 321 | 1.7 | 2.6 | 0.00 | 0.00 | 0.00 | 58 | 1014.2 |
| 20260901212827 | 94 | 266 | 3.5 | 6.1 | 0.00 | 0.00 | 0.00 | 57 | 1014.2 |
| 20260901212323 | 94 | 311 | 1.7 | 2.6 | 0.00 | 0.00 | 0.00 | 57 | 1014.1 |
| 20260901211819 | 95 | 263 | 4.3 | 6.1 | 0.00 | 0.00 | 0.00 | 58 | 1014.3 |
| 20260901211315 | 94 | 270 | 3.5 | 3.5 | 0.00 | 0.00 | 0.00 | 57 | 1014.3 |
| 20260901210810 | 95 | 268 | 1.7 | 2.6 | 0.00 | 0.00 | 0.00 | 56 | 1014.3 |
| 20260901210306 | 95 | 235 | 5.2 | 7.0 | 0.00 | 0.00 | 0.00 | 56 | 1014.4 |
| 20260901205802 | 94 | 291 | 7.0 | 7.0 | 0.00 | 0.00 | 0.00 | 58 | 1014.4 |
| 20260901205305 | 94 | 244 | 7.8 | 8.7 | 0.00 | 0.00 | 0.00 | 58 | 1014.6 |
| 20260901204757 | 94 | 270 | 6.1 | 7.8 | 0.00 | 0.00 | 0.00 | 58 | 1014.6 |
| 20260901204253 | 95 | 241 | 5.2 | 7.0 | 0.00 | 0.00 | 0.00 | 56 | 1014.4 |
| 20260901203754 | 95 | 222 | 1.7 | 2.6 | 0.00 | 0.00 | 0.00 | 56 | 1014.7 |
| 20260901203248 | 94 | 266 | 7.0 | 7.8 | 0.00 | 0.00 | 0.00 | 59 | 1014.6 |
| 20260901202748 | 94 | 271 | 2.6 | 2.6 | 0.00 | 0.00 | 0.00 | 58 | 1014.5 |
| 20260901202243 | 94 | 271 | 4.3 | 5.2 | 0.00 | 0.00 | 0.00 | 57 | 1014.6 |
| 20260901201739 | 95 | 253 | 7.8 | 9.6 | 0.00 | 0.00 | 0.00 | 58 | 1014.6 |
| 20260901201238 | 94 | 289 | 5.2 | 6.1 | 0.00 | 0.00 | 0.00 | 58 | 1014.6 |
| 20260901200733 | 93 | 266 | 5.2 | 6.1 | 0.00 | 0.00 | 0.00 | 62 | 1014.5 |
| 20260901200228 | 94 | 210 | 6.1 | 7.8 | 0.00 | 0.00 | 0.00 | 60 | 1014.6 |
| 20260901195726 | 95 | 271 | 7.0 | 9.6 | 0.00 | 0.00 | 0.00 | 61 | 1014.7 |
| 20260901195220 | 94 | 271 | 7.8 | 9.6 | 0.00 | 0.00 | 0.00 | 61 | 1014.8 |
| 20260901194716 | 94 | 210 | 7.0 | 7.8 | 0.00 | 0.00 | 0.00 | 61 | 1014.4 |
| 20260901194210 | 93 | 262 | 7.0 | 8.7 | 0.00 | 0.00 | 0.00 | 63 | 1014.9 |
| 20260901193707 | 94 | 246 | 4.3 | 5.2 | 0.00 | 0.00 | 0.00 | 62 | 1014.8 |
| 20260901193206 | 94 | 229 | 3.5 | 5.2 | 0.00 | 0.00 | 0.00 | 61 | 1014.7 |
| 20260901192701 | 94 | 255 | 3.5 | 3.5 | 0.00 | 0.00 | 0.00 | 62 | 1014.8 |
| 20260901192156 | 95 | 211 | 5.2 | 6.1 | 0.00 | 0.00 | 0.00 | 61 | 1014.9 |
| 20260901191651 | 94 | 270 | 2.6 | 2.6 | 0.00 | 0.00 | 0.00 | 62 | 1015.0 |
| 20260901191142 | 93 | 265 | 5.2 | 7.0 | 0.00 | 0.00 | 0.00 | 63 | 1015.0 |
| 20260901190638 | 95 | 310 | 4.3 | 6.1 | 0.00 | 0.00 | 0.00 | 61 | 1015.0 |
| 20260901190137 | 94 | 312 | 4.3 | 6.1 | 0.00 | 0.00 | 0.00 | 62 | 1015.0 |
| 20260901185636 | 93 | 268 | 3.5 | 3.5 | 0.00 | 0.00 | 0.00 | 60 | 1015.0 |
| 20260901185134 | 94 | 256 | 4.3 | 6.1 | 0.00 | 0.00 | 0.00 | 61 | 1015.0 |
| 20260901184630 | 95 | 299 | 1.7 | 2.6 | 0.00 | 0.00 | 0.00 | 60 | 1015.1 |
| 20260901184125 | 94 | 351 | 0.9 | 0.9 | 0.00 | 0.00 | 0.00 | 61 | 1015.2 |
| 20260901183620 | 94 | 8 | 2.6 | 2.6 | 0.00 | 0.00 | 0.00 | 61 | 1015.3 |
| 20260901183115 | 93 | 261 | 2.6 | 5.2 | 0.00 | 0.00 | 0.00 | 63 | 1015.1 |
| 20260901182612 | 92 | 276 | 4.3 | 6.1 | 0.00 | 0.00 | 0.00 | 65 | 1015.3 |
| 20260901182111 | 93 | 221 | 3.5 | 5.2 | 0.00 | 0.00 | 0.00 | 64 | 1015.1 |
| 20260901181611 | 92 | 194 | 2.6 | 3.5 | 0.00 | 0.00 | 0.00 | 64 | 1015.2 |
| 20260901181110 | 93 | 249 | 5.2 | 6.1 | 0.00 | 0.00 | 0.00 | 64 | 1015.1 |
| 20260901180609 | 93 | 324 | 2.6 | 3.5 | 0.00 | 0.00 | 0.00 | 66 | 1015.3 |
| 20260901180105 | 93 | 258 | 1.7 | 2.6 | 0.00 | 0.00 | 0.00 | 66 | 1015.4 |
| 20260901175603 | 92 | 5 | 3.5 | 3.5 | 0.00 | 0.00 | 0.00 | 67 | 1015.5 |
| 20260901175058 | 92 | 205 | 4.3 | 5.2 | 0.00 | 0.00 | 0.00 | 67 | 1015.4 |
| 20260901174554 | 91 | 304 | 2.6 | 3.5 | 0.00 | 0.00 | 0.00 | 69 | 1015.5 |
| 20260901174049 | 91 | 175 | 3.5 | 3.5 | 0.00 | 0.00 | 0.00 | 67 | 1015.5 |
| 20260901173544 | 91 | 320 | 2.6 | 5.2 | 0.00 | 0.00 | 0.00 | 68 | 1015.6 |
| 20260901173040 | 91 | 243 | 3.5 | 3.5 | 0.00 | 0.00 | 0.00 | 68 | 1015.5 |
| 20260901172535 | 91 | 289 | 1.7 | 2.6 | 0.00 | 0.00 | 0.00 | 67 | 1015.6 |
| 20260901172033 | 92 | 253 | 8.7 | 9.6 | 0.00 | 0.00 | 0.00 | 65 | 1015.7 |
| 20260901171533 | 91 | 217 | 1.7 | 3.5 | 0.00 | 0.00 | 0.00 | 69 | 1015.8 |
| 20260901171031 | 90 | 282 | 4.3 | 6.1 | 0.00 | 0.00 | 0.00 | 70 | 1015.7 |
| 20260901170525 | 91 | 255 | 7.8 | 7.8 | 0.00 | 0.00 | 0.00 | 71 | 1015.7 |
| 20260901170020 | 91 | 230 | 6.1 | 6.1 | 0.00 | 0.00 | 0.00 | 70 | 1015.7 |
| 20260901165514 | 91 | 247 | 2.6 | 3.5 | 0.00 | 0.00 | 0.00 | 71 | 1015.6 |
| 20260901165010 | 91 | 295 | 0.9 | 1.7 | 0.00 | 0.00 | 0.00 | 71 | 1015.7 |
| 20260901164505 | 90 | 355 | 3.5 | 3.5 | 0.00 | 0.00 | 0.00 | 74 | 1015.7 |
| 20260901164000 | 90 | 311 | 0.9 | 1.7 | 0.00 | 0.00 | 0.00 | 74 | 1015.8 |
| 20260901163456 | 89 | 215 | 1.7 | 2.6 | 0.00 | 0.00 | 0.00 | 73 | 1015.6 |
| 20260901162954 | 89 | 256 | 2.6 | 3.5 | 0.00 | 0.00 | 0.00 | 73 | 1015.9 |
| 20260901162449 | 89 | 261 | 3.5 | 3.5 | 0.00 | 0.00 | 0.00 | 74 | 1015.8 |
| 20260901161948 | 89 | 222 | 4.3 | 6.1 | 0.00 | 0.00 | 0.00 | 75 | 1015.7 |
| 20260901161448 | 89 | 230 | 4.3 | 5.2 | 0.00 | 0.00 | 0.00 | 75 | 1015.7 |
| 20260901160943 | 89 | 285 | 1.7 | 1.7 | 0.00 | 0.00 | 0.00 | 74 | 1015.8 |
| 20260901160439 | 89 | 202 | 0.9 | 1.7 | 0.00 | 0.00 | 0.00 | 74 | 1015.8 |
| 20260901155938 | 88 | 264 | 2.6 | 2.6 | 0.00 | 0.00 | 0.00 | 77 | 1015.9 |
| 20260901155433 | 88 | 247 | 3.5 | 3.5 | 0.00 | 0.00 | 0.00 | 77 | 1015.7 |
| 20260901154930 | 88 | 340 | 0.9 | 1.7 | 0.00 | 0.00 | 0.00 | 77 | 1015.6 |
| 20260901154429 | 88 | 260 | 1.7 | 1.7 | 0.00 | 0.00 | 0.00 | 76 | 1015.6 |
| 20260901153923 | 88 | 200 | 2.6 | 2.6 | 0.00 | 0.00 | 0.00 | 78 | 1015.9 |
| 20260901153424 | 87 | 299 | 2.6 | 2.6 | 0.00 | 0.00 | 0.00 | 78 | 1015.8 |
| 20260901152917 | 86 | 192 | 3.5 | 3.5 | 0.00 | 0.00 | 0.00 | 81 | 1016.0 |
| 20260901152412 | 85 | 211 | 2.6 | 2.6 | 0.00 | 0.00 | 0.00 | 81 | 1015.7 |
| 20260901151912 | 84 | 216 | 2.6 | 3.5 | 0.00 | 0.00 | 0.00 | 83 | 1015.7 |
| 20260901151407 | 85 | 13 | 2.6 | 2.6 | 0.00 | 0.00 | 0.00 | 81 | 1015.8 |
| 20260901150906 | 83 | 261 | 2.6 | 2.6 | 0.00 | 0.00 | 0.00 | 84 | 1015.9 |
| 20260901150404 | 83 | 262 | 3.5 | 3.5 | 0.00 | 0.00 | 0.00 | 84 | 1015.9 |
| 20260901145902 | 82 | 245 | 1.7 | 1.7 | 0.00 | 0.00 | 0.00 | 84 | 1015.4 |
| 20260901145402 | 82 | 284 | 3.5 | 5.2 | 0.00 | 0.00 | 0.00 | 87 | 1015.7 |
| 20260901144902 | 82 | 226 | 3.5 | 3.5 | 0.00 | 0.00 | 0.00 | 86 | 1015.6 |
| 20260901144357 | 84 | 225 | 1.7 | 1.7 | 0.00 | 0.00 | 0.00 | 81 | 1015.9 |
| 20260901143853 | 82 | 316 | 0.9 | 0.9 | 0.00 | 0.00 | 0.00 | 84 | 1015.8 |
| 20260901143349 | 80 | 325 | 0.9 | 1.7 | 0.00 | 0.00 | 0.00 | 88 | 1016.0 |
| 20260901142845 | 82 | 304 | 1.7 | 2.6 | 0.00 | 0.00 | 0.00 | 84 | 1016.0 |
| 20260901142344 | 80 | 325 | 0.0 | 0.9 | 0.00 | 0.00 | 0.00 | 87 | 1016.0 |
| 20260901141839 | 79 | 340 | 0.0 | 0.0 | 0.00 | 0.00 | 0.00 | 89 | 1016.1 |
| 20260901141334 | 79 | 350 | 0.9 | 0.9 | 0.00 | 0.00 | 0.00 | 89 | 1016.0 |
| 20260901140833 | 78 | 329 | 0.9 | 0.9 | 0.00 | 0.00 | 0.00 | 90 | 1016.2 |
| 20260901140331 | 78 | 299 | 1.7 | 1.7 | 0.00 | 0.00 | 0.00 | 90 | 1016.0 |
| 20260901135826 | 77 | 331 | 0.9 | 1.7 | 0.00 | 0.00 | 0.00 | 91 | 1016.2 |
| 20260901135322 | 77 | 280 | 1.7 | 2.6 | 0.00 | 0.00 | 0.00 | 91 | 1016.2 |
| 20260901134818 | 77 | 271 | 2.6 | 2.6 | 0.00 | 0.00 | 0.00 | 90 | 1016.1 |
| 20260901134313 | 77 | 320 | 0.9 | 1.7 | 0.00 | 0.00 | 0.00 | 90 | 1016.2 |
| 20260901133807 | 77 | 335 | 0.9 | 1.7 | 0.00 | 0.00 | 0.00 | 90 | 1016.3 |
| 20260901133306 | 77 | 326 | 0.9 | 0.9 | 0.00 | 0.00 | 0.00 | 90 | 1016.1 |
| 20260901132805 | 77 | 340 | 0.9 | 0.9 | 0.00 | 0.00 | 0.00 | 90 | 1016.1 |
| 20260901132300 | 77 | 318 | 0.9 | 0.9 | 0.00 | 0.00 | 0.00 | 90 | 1016.0 |
| 20260901131759 | 78 | 221 | 0.9 | 1.7 | 0.00 | 0.00 | 0.00 | 89 | 1016.0 |
| 20260901131259 | 78 | 324 | 0.9 | 0.9 | 0.00 | 0.00 | 0.00 | 89 | 1015.9 |
| 20260901130754 | 77 | 345 | 0.0 | 0.0 | 0.00 | 0.00 | 0.00 | 89 | 1016.0 |
| 20260901130249 | 76 | 345 | 0.0 | 0.0 | 0.00 | 0.00 | 0.00 | 90 | 1016.1 |
| 20260901125747 | 76 | 331 | 0.9 | 0.9 | 0.00 | 0.00 | 0.00 | 92 | 1016.1 |
| 20260901125242 | 75 | 324 | 0.9 | 0.9 | 0.00 | 0.00 | 0.00 | 93 | 1016.1 |
| 20260901124741 | 74 | 350 | 0.0 | 0.0 | 0.00 | 0.00 | 0.00 | 94 | 1016.1 |
| 20260901124236 | 74 | 292 | 0.9 | 0.9 | 0.00 | 0.00 | 0.00 | 94 | 1016.1 |
| 20260901123736 | 74 | 295 | 0.9 | 1.7 | 0.00 | 0.00 | 0.00 | 94 | 1016.0 |
| 20260901123231 | 74 | 231 | 1.7 | 2.6 | 0.00 | 0.00 | 0.00 | 94 | 1016.0 |
| 20260901122730 | 74 | 334 | 0.9 | 0.9 | 0.00 | 0.00 | 0.00 | 95 | 1016.0 |
| 20260901122224 | 74 | 336 | 0.9 | 0.9 | 0.00 | 0.00 | 0.00 | 95 | 1016.1 |
| 20260901121719 | 74 | 328 | 0.9 | 0.9 | 0.00 | 0.00 | 0.00 | 95 | 1015.8 |
| 20260901121214 | 74 | 313 | 0.9 | 0.9 | 0.00 | 0.00 | 0.00 | 95 | 1015.9 |
| 20260901120714 | 74 | 290 | 0.9 | 0.9 | 0.00 | 0.00 | 0.00 | 95 | 1016.1 |
| 20260901120209 | 73 | 332 | 0.0 | 0.0 | 0.00 | 0.00 | 0.00 | 95 | 1015.7 |
| 20260901115704 | 73 | 345 | 0.0 | 0.0 | 0.00 | 0.00 | 0.00 | 95 | 1015.8 |
| 20260901115200 | 73 | 337 | 0.0 | 0.0 | 0.00 | 0.00 | 0.00 | 96 | 1015.7 |
| 20260901114657 | 72 | 344 | 0.0 | 0.0 | 0.00 | 0.00 | 0.00 | 97 | 1015.7 |
| 20260901114156 | 72 | 316 | 0.9 | 0.9 | 0.00 | 0.00 | 0.00 | 97 | 1015.5 |
| 20260901113655 | 72 | 344 | 0.0 | 0.0 | 0.00 | 0.00 | 0.00 | 97 | 1015.6 |
| 20260901113150 | 72 | 349 | 0.0 | 0.0 | 0.00 | 0.00 | 0.00 | 96 | 1015.4 |
| 20260901112644 | 72 | 351 | 0.9 | 0.9 | 0.00 | 0.00 | 0.00 | 96 | 1015.3 |
| 20260901112139 | 72 | 341 | 0.0 | 0.0 | 0.00 | 0.00 | 0.00 | 96 | 1015.5 |
| 20260901111638 | 72 | 341 | 0.0 | 0.0 | 0.00 | 0.00 | 0.00 | 96 | 1015.4 |
| 20260901111137 | 72 | 348 | 0.0 | 0.0 | 0.00 | 0.00 | 0.00 | 95 | 1015.3 |
| 20260901110633 | 73 | 353 | 0.0 | 0.0 | 0.00 | 0.00 | 0.00 | 95 | 1015.3 |
| 20260901110128 | 73 | 344 | 0.0 | 0.0 | 0.00 | 0.00 | 0.00 | 95 | 1015.3 |
| 20260901105624 | 73 | 344 | 0.0 | 0.0 | 0.00 | 0.00 | 0.00 | 95 | 1015.2 |
| 20260901105123 | 73 | 341 | 0.0 | 0.0 | 0.00 | 0.00 | 0.00 | 95 | 1015.1 |
| 20260901104619 | 73 | 339 | 0.0 | 0.0 | 0.00 | 0.00 | 0.00 | 96 | 1015.1 |
| 20260901104114 | 73 | 336 | 0.9 | 0.9 | 0.00 | 0.00 | 0.00 | 95 | 1015.3 |
| 20260901103609 | 73 | 333 | 0.0 | 0.0 | 0.00 | 0.00 | 0.00 | 96 | 1015.1 |
| 20260901103104 | 73 | 347 | 0.0 | 0.0 | 0.00 | 0.00 | 0.00 | 96 | 1015.0 |
| 20260901102559 | 74 | 347 | 0.0 | 0.9 | 0.00 | 0.00 | 0.00 | 96 | 1014.9 |
| 20260901102054 | 73 | 326 | 0.9 | 0.9 | 0.00 | 0.00 | 0.00 | 96 | 1015.0 |
| 20260901101549 | 73 | 334 | 0.0 | 0.0 | 0.00 | 0.00 | 0.00 | 96 | 1014.9 |
| 20260901101048 | 73 | 334 | 0.0 | 0.0 | 0.00 | 0.00 | 0.00 | 96 | 1014.7 |
| 20260901100543 | 73 | 339 | 0.0 | 0.0 | 0.00 | 0.00 | 0.00 | 96 | 1014.7 |
| 20260901100043 | 73 | 338 | 0.0 | 0.0 | 0.00 | 0.00 | 0.00 | 96 | 1014.8 |
| 20260901095541 | 73 | 340 | 0.0 | 0.0 | 0.00 | 0.00 | 0.00 | 96 | 1014.8 |
| 20260901095039 | 73 | 340 | 0.0 | 0.0 | 0.00 | 0.00 | 0.00 | 96 | 1014.8 |
| 20260901094534 | 73 | 353 | 0.9 | 0.9 | 0.00 | 0.00 | 0.00 | 97 | 1014.8 |
| 20260901094033 | 73 | 339 | 0.0 | 0.9 | 0.00 | 0.00 | 0.00 | 97 | 1014.9 |
| 20260901093528 | 72 | 339 | 0.0 | 0.0 | 0.00 | 0.00 | 0.00 | 97 | 1014.8 |
| 20260901093023 | 73 | 338 | 0.9 | 0.9 | 0.00 | 0.00 | 0.00 | 96 | 1014.7 |
| 20260901092519 | 73 | 341 | 0.9 | 0.9 | 0.00 | 0.00 | 0.00 | 96 | 1014.8 |
| 20260901092015 | 73 | 350 | 0.9 | 0.9 | 0.00 | 0.00 | 0.00 | 96 | 1014.9 |
| 20260901091510 | 73 | 8 | 0.9 | 0.9 | 0.00 | 0.00 | 0.00 | 95 | 1014.8 |
| 20260901091009 | 74 | 349 | 0.0 | 0.0 | 0.00 | 0.00 | 0.00 | 95 | 1014.7 |
| 20260901090509 | 74 | 326 | 0.0 | 0.9 | 0.00 | 0.00 | 0.00 | 95 | 1014.8 |
| 20260901090005 | 74 | 326 | 0.9 | 0.9 | 0.00 | 0.00 | 0.00 | 95 | 1014.8 |
| 20260901085500 | 74 | 346 | 0.0 | 0.0 | 0.00 | 0.00 | 0.00 | 96 | 1014.8 |
| 20260901084956 | 74 | 349 | 0.0 | 0.0 | 0.00 | 0.00 | 0.00 | 95 | 1014.6 |
| 20260901084452 | 74 | 336 | 0.0 | 0.0 | 0.00 | 0.00 | 0.00 | 95 | 1014.6 |
| 20260901083948 | 74 | 339 | 0.9 | 0.9 | 0.00 | 0.00 | 0.00 | 95 | 1014.5 |
| 20260901083443 | 74 | 339 | 0.0 | 0.0 | 0.00 | 0.00 | 0.00 | 95 | 1014.6 |
| 20260901082941 | 74 | 337 | 0.9 | 0.9 | 0.00 | 0.00 | 0.00 | 95 | 1014.6 |
| 20260901082436 | 74 | 352 | 0.9 | 0.9 | 0.00 | 0.00 | 0.00 | 95 | 1014.7 |
| 20260901081931 | 74 | 352 | 0.0 | 0.0 | 0.00 | 0.00 | 0.00 | 95 | 1014.7 |
| 20260901081426 | 74 | 349 | 0.0 | 0.0 | 0.00 | 0.00 | 0.00 | 95 | 1014.7 |
| 20260901080921 | 75 | 349 | 0.0 | 0.0 | 0.00 | 0.00 | 0.00 | 94 | 1014.7 |
| 20260901080420 | 75 | 337 | 0.0 | 0.0 | 0.00 | 0.00 | 0.00 | 94 | 1014.7 |
| 20260901075916 | 75 | 326 | 0.9 | 0.9 | 0.00 | 0.00 | 0.00 | 94 | 1014.7 |
| 20260901075416 | 75 | 302 | 1.7 | 1.7 | 0.00 | 0.00 | 0.00 | 94 | 1014.9 |
| 20260901074915 | 75 | 336 | 0.0 | 0.0 | 0.00 | 0.00 | 0.00 | 94 | 1014.7 |
| 20260901074410 | 74 | 331 | 0.9 | 0.9 | 0.00 | 0.00 | 0.00 | 94 | 1014.8 |
| 20260901073906 | 75 | 345 | 0.0 | 0.0 | 0.00 | 0.00 | 0.00 | 94 | 1014.8 |
| 20260901073402 | 75 | 345 | 0.0 | 0.0 | 0.00 | 0.00 | 0.00 | 94 | 1014.8 |
| 20260901072857 | 75 | 345 | 0.0 | 0.0 | 0.00 | 0.00 | 0.00 | 94 | 1014.8 |
| 20260901072357 | 75 | 344 | 0.0 | 0.0 | 0.00 | 0.00 | 0.00 | 94 | 1014.8 |
| 20260901071852 | 75 | 345 | 0.0 | 0.9 | 0.00 | 0.00 | 0.00 | 94 | 1014.8 |
| 20260901071351 | 75 | 355 | 0.0 | 0.0 | 0.00 | 0.00 | 0.00 | 94 | 1014.7 |
| 20260901070850 | 75 | 355 | 0.0 | 0.0 | 0.00 | 0.00 | 0.00 | 93 | 1014.8 |
| 20260901070346 | 75 | 354 | 0.0 | 0.0 | 0.00 | 0.00 | 0.00 | 93 | 1014.7 |
| 20260901065844 | 75 | 355 | 0.0 | 0.0 | 0.00 | 0.00 | 0.00 | 93 | 1014.6 |
| 20260901065339 | 75 | 357 | 0.0 | 0.0 | 0.00 | 0.00 | 0.00 | 94 | 1014.7 |
| 20260901064835 | 75 | 338 | 0.0 | 0.0 | 0.00 | 0.00 | 0.00 | 94 | 1014.7 |
| 20260901064331 | 75 | 338 | 0.0 | 0.0 | 0.00 | 0.00 | 0.00 | 94 | 1014.7 |
| 20260901063829 | 75 | 345 | 0.0 | 0.0 | 0.00 | 0.00 | 0.00 | 93 | 1014.9 |
| 20260901063325 | 76 | 345 | 0.0 | 0.0 | 0.00 | 0.00 | 0.00 | 92 | 1015.1 |
| 20260901062821 | 76 | 345 | 0.0 | 0.0 | 0.00 | 0.00 | 0.00 | 91 | 1014.9 |
| 20260901062317 | 77 | 337 | 0.0 | 0.0 | 0.00 | 0.00 | 0.00 | 91 | 1014.8 |
| 20260901061812 | 77 | 338 | 0.0 | 0.0 | 0.00 | 0.00 | 0.00 | 91 | 1014.8 |
| 20260901061312 | 76 | 345 | 0.9 | 0.9 | 0.00 | 0.00 | 0.00 | 91 | 1015.0 |
| 20260901060808 | 76 | 349 | 0.0 | 0.0 | 0.00 | 0.00 | 0.00 | 92 | 1014.9 |
| 20260901060303 | 77 | 346 | 0.0 | 0.0 | 0.00 | 0.00 | 0.00 | 91 | 1014.8 |
| 20260901055758 | 77 | 336 | 0.0 | 0.0 | 0.00 | 0.00 | 0.00 | 91 | 1014.9 |
| 20260901055254 | 77 | 341 | 0.0 | 0.0 | 0.00 | 0.00 | 0.00 | 90 | 1014.9 |
| 20260901054751 | 77 | 334 | 0.0 | 0.0 | 0.00 | 0.00 | 0.00 | 91 | 1014.9 |
| 20260901054247 | 77 | 335 | 0.0 | 0.9 | 0.00 | 0.00 | 0.00 | 91 | 1014.9 |
| 20260901053743 | 77 | 333 | 0.0 | 0.9 | 0.00 | 0.00 | 0.00 | 91 | 1014.8 |
| 20260901053243 | 77 | 339 | 0.0 | 0.0 | 0.00 | 0.00 | 0.00 | 91 | 1014.8 |
| 20260901052739 | 77 | 348 | 0.0 | 0.0 | 0.00 | 0.00 | 0.00 | 90 | 1014.6 |
| 20260901052234 | 77 | 341 | 0.0 | 0.0 | 0.00 | 0.00 | 0.00 | 90 | 1014.6 |
| 20260901051733 | 77 | 341 | 0.9 | 0.9 | 0.00 | 0.00 | 0.00 | 91 | 1014.3 |
| 20260901051228 | 76 | 337 | 0.0 | 0.9 | 0.00 | 0.00 | 0.00 | 93 | 1014.5 |
| 20260901050724 | 76 | 351 | 0.0 | 0.0 | 0.00 | 0.00 | 0.00 | 93 | 1014.6 |
| 20260901050219 | 76 | 351 | 0.0 | 0.0 | 0.00 | 0.00 | 0.00 | 92 | 1014.4 |
| 20260901045714 | 77 | 351 | 0.0 | 0.0 | 0.00 | 0.00 | 0.00 | 92 | 1014.5 |
| 20260901045209 | 77 | 347 | 0.0 | 0.0 | 0.00 | 0.00 | 0.00 | 91 | 1014.5 |
| 20260901044704 | 78 | 340 | 0.9 | 0.9 | 0.00 | 0.00 | 0.00 | 90 | 1014.5 |
| 20260901044200 | 78 | 345 | 0.0 | 0.0 | 0.00 | 0.00 | 0.00 | 88 | 1014.6 |
| 20260901043655 | 78 | 333 | 0.0 | 0.0 | 0.00 | 0.00 | 0.00 | 87 | 1014.5 |
| 20260901043151 | 79 | 338 | 0.0 | 0.0 | 0.00 | 0.00 | 0.00 | 87 | 1014.4 |
| 20260901042650 | 78 | 303 | 0.9 | 0.9 | 0.00 | 0.00 | 0.00 | 87 | 1014.3 |
| 20260901042145 | 78 | 330 | 0.9 | 0.9 | 0.00 | 0.00 | 0.00 | 87 | 1014.2 |
| 20260901041641 | 79 | 340 | 0.0 | 0.0 | 0.00 | 0.00 | 0.00 | 87 | 1014.3 |
| 20260901041136 | 79 | 334 | 1.7 | 2.6 | 0.00 | 0.00 | 0.00 | 87 | 1014.1 |
| 20260901040636 | 79 | 289 | 1.7 | 2.6 | 0.00 | 0.00 | 0.00 | 87 | 1014.3 |
| 20260901040135 | 79 | 328 | 1.7 | 1.7 | 0.00 | 0.00 | 0.00 | 86 | 1014.3 |
| 20260901035633 | 79 | 265 | 1.7 | 1.7 | 0.00 | 0.00 | 0.00 | 86 | 1014.3 |
| 20260901035132 | 79 | 284 | 1.7 | 2.6 | 0.00 | 0.00 | 0.00 | 86 | 1014.4 |
| 20260901034627 | 79 | 337 | 0.0 | 0.9 | 0.00 | 0.00 | 0.00 | 86 | 1014.6 |
| 20260901034126 | 80 | 353 | 0.0 | 0.9 | 0.00 | 0.00 | 0.00 | 86 | 1014.5 |
| 20260901033621 | 80 | 277 | 1.7 | 1.7 | 0.00 | 0.00 | 0.00 | 86 | 1014.3 |
| 20260901033120 | 80 | 328 | 0.9 | 0.9 | 0.00 | 0.00 | 0.00 | 86 | 1014.4 |
| 20260901032619 | 79 | 314 | 1.7 | 1.7 | 0.00 | 0.00 | 0.00 | 86 | 1014.7 |
| 20260901032114 | 79 | 341 | 0.0 | 0.0 | 0.00 | 0.00 | 0.00 | 89 | 1014.6 |
| 20260901031610 | 79 | 325 | 0.9 | 0.9 | 0.00 | 0.00 | 0.00 | 89 | 1014.7 |
| 20260901031106 | 79 | 328 | 0.0 | 0.9 | 0.00 | 0.00 | 0.00 | 90 | 1014.8 |
| 20260901030605 | 79 | 4 | 0.0 | 0.9 | 0.00 | 0.00 | 0.00 | 90 | 1014.5 |
| 20260901030100 | 78 | 349 | 0.0 | 0.0 | 0.00 | 0.00 | 0.00 | 90 | 1014.5 |
| 20260901025559 | 79 | 349 | 0.9 | 0.9 | 0.00 | 0.00 | 0.00 | 90 | 1014.8 |
| 20260901025054 | 79 | 349 | 0.0 | 0.0 | 0.00 | 0.00 | 0.00 | 89 | 1014.6 |
| 20260901024549 | 79 | 348 | 0.0 | 0.0 | 0.00 | 0.00 | 0.00 | 89 | 1014.5 |
| 20260901024047 | 79 | 343 | 0.0 | 0.0 | 0.00 | 0.00 | 0.00 | 89 | 1014.6 |
| 20260901023546 | 79 | 343 | 0.0 | 0.0 | 0.00 | 0.00 | 0.00 | 89 | 1014.5 |
| 20260901023042 | 79 | 343 | 0.0 | 0.0 | 0.00 | 0.00 | 0.00 | 88 | 1014.6 |
| 20260901022537 | 80 | 343 | 0.0 | 0.9 | 0.00 | 0.00 | 0.00 | 87 | 1014.5 |
| 20260901022032 | 81 | 343 | 0.0 | 0.0 | 0.00 | 0.00 | 0.00 | 85 | 1014.3 |
| 20260901021528 | 81 | 344 | 0.0 | 0.0 | 0.00 | 0.00 | 0.00 | 84 | 1014.4 |
| 20260901021023 | 82 | 345 | 0.0 | 0.0 | 0.00 | 0.00 | 0.00 | 83 | 1014.5 |
| 20260901020518 | 82 | 338 | 0.0 | 0.9 | 0.00 | 0.00 | 0.00 | 83 | 1014.5 |
| 20260901020014 | 82 | 332 | 0.0 | 0.0 | 0.00 | 0.00 | 0.00 | 83 | 1014.5 |
| 20260901015509 | 82 | 333 | 0.9 | 0.9 | 0.00 | 0.00 | 0.00 | 82 | 1014.5 |
| 20260901015008 | 82 | 345 | 0.0 | 0.0 | 0.00 | 0.00 | 0.00 | 82 | 1014.5 |
| 20260901014504 | 82 | 327 | 0.9 | 0.9 | 0.00 | 0.00 | 0.00 | 82 | 1014.3 |
| 20260901014000 | 82 | 341 | 0.0 | 0.0 | 0.00 | 0.00 | 0.00 | 81 | 1014.5 |
| 20260901013455 | 83 | 339 | 0.0 | 0.0 | 0.00 | 0.00 | 0.00 | 81 | 1014.2 |
| 20260901012951 | 83 | 311 | 0.9 | 1.7 | 0.00 | 0.00 | 0.00 | 80 | 1014.0 |
| 20260901012450 | 83 | 297 | 0.9 | 1.7 | 0.00 | 0.00 | 0.00 | 79 | 1014.0 |
| 20260901011946 | 84 | 320 | 0.9 | 0.9 | 0.00 | 0.00 | 0.00 | 78 | 1014.0 |
| 20260901011442 | 84 | 331 | 0.9 | 0.9 | 0.00 | 0.00 | 0.00 | 78 | 1013.7 |
| 20260901010940 | 84 | 292 | 0.9 | 1.7 | 0.00 | 0.00 | 0.00 | 78 | 1013.9 |
| 20260901010435 | 84 | 333 | 0.9 | 0.9 | 0.00 | 0.00 | 0.00 | 77 | 1014.0 |
| 20260901005934 | 84 | 337 | 0.9 | 1.7 | 0.00 | 0.00 | 0.00 | 77 | 1013.7 |
| 20260901005429 | 85 | 343 | 0.0 | 0.9 | 0.00 | 0.00 | 0.00 | 76 | 1014.0 |
| 20260901004924 | 85 | 332 | 0.0 | 0.0 | 0.00 | 0.00 | 0.00 | 76 | 1013.7 |
| 20260901004424 | 85 | 319 | 0.9 | 0.9 | 0.00 | 0.00 | 0.00 | 75 | 1014.1 |
| 20260901003919 | 85 | 293 | 1.7 | 2.6 | 0.00 | 0.00 | 0.00 | 75 | 1013.7 |
| 20260901003414 | 85 | 298 | 1.7 | 2.6 | 0.00 | 0.00 | 0.00 | 75 | 1013.9 |
| 20260901002912 | 86 | 334 | 1.7 | 1.7 | 0.00 | 0.00 | 0.00 | 74 | 1013.7 |
| 20260901002407 | 86 | 243 | 1.7 | 2.6 | 0.00 | 0.00 | 0.00 | 74 | 1013.6 |
| 20260901001907 | 86 | 237 | 2.6 | 3.5 | 0.00 | 0.00 | 0.00 | 73 | 1013.4 |
| 20260901001402 | 87 | 258 | 1.7 | 1.7 | 0.00 | 0.00 | 0.00 | 73 | 1013.5 |
| 20260901000857 | 87 | 299 | 0.0 | 0.9 | 0.00 | 0.00 | 0.00 | 72 | 1013.5 |
| 20260901000352 | 87 | 248 | 3.5 | 5.2 | 0.00 | 0.00 | 0.00 | 72 | 1013.4 |
| 20260831235851 | 87 | 333 | 1.7 | 1.7 | 0.00 | 0.00 | 0.00 | 71 | 1013.5 |
| 20260831235347 | 87 | 257 | 5.2 | 6.1 | 0.00 | 0.00 | 0.00 | 71 | 1013.7 |
| 20260831234842 | 87 | 249 | 2.6 | 3.5 | 0.00 | 0.00 | 0.00 | 70 | 1013.6 |
| 20260831234342 | 88 | 281 | 2.6 | 2.6 | 0.00 | 0.00 | 0.00 | 70 | 1013.5 |
| 20260831233837 | 88 | 253 | 3.5 | 3.5 | 0.00 | 0.00 | 0.00 | 69 | 1013.6 |
| 20260831233332 | 88 | 278 | 2.6 | 2.6 | 0.00 | 0.00 | 0.00 | 69 | 1013.4 |
| 20260831232828 | 88 | 265 | 3.5 | 6.1 | 0.00 | 0.00 | 0.00 | 69 | 1013.5 |
| 20260831232324 | 89 | 311 | 3.5 | 7.0 | 0.00 | 0.00 | 0.00 | 69 | 1013.4 |